Regional Weather Roundup
Issued by NWS Green Bay, WI

Home | Current Version | Previous Version | Text Only | Print | Product List | Glossary On
Versions: 1 2 3 4 5 6 7 8 9 10 11 12 13 14 15 16 17 18 19 20 21 22 23 24 25 26 27 28 29 30 31 32 33 34 35 36 37 38 39 40 41 42 43 44 45 46 47 48 49 50
000
ASUS43 KGRB 292210
RWRGRB

NORTH-CENTRAL AND NORTHEAST WISCONSIN REGIONAL WEATHER ROUNDUP
NATIONAL WEATHER SERVICE GREEN BAY WI
500 PM CDT FRI AUG 29 2014

WIZ005-009-010>012-018-019-292300-
NORTH CENTRAL WISCONSIN

CITY           SKY/WX    TMP DP  RH WIND       PRES   REMARKS
IRONWOOD       NOT AVBL
MANITOWISH WTR LGT RAIN  67  66  98 S5        29.82S
ARBOR VITAE    PTSUNNY   72  68  87 S5        29.83F
EAGLE RIVER      N/A     70  66  85 S5        29.83R
LAND O LAKES   CLOUDY    72  65  78 S7        29.83S
RHINELANDER    CLOUDY    70  65  84 S6        29.85R
PHILLIPS       CLOUDY    72  68  87 SW3       29.81S
ANTIGO         MOSUNNY   74  69  84 S7        29.84S
TOMAHAWK       CLOUDY    72  66  82 CALM      29.84R HAZE
MERRILL        MOSUNNY   76  70  81 S5        29.81S
$$

WIZ013-073-292300-
NORTHEAST WISCONSIN

CITY           SKY/WX    TMP DP  RH WIND       PRES   REMARKS
IRON MOUNTAIN  CLOUDY    69  66  90 SE7       29.82F FOG
MARINETTE      SUNNY     73  66  78 S14       29.82S
OCONTO         MOSUNNY   78  73  83 SE9       29.81F
$$

WIZ017-030-035>037-045-292300-
CENTRAL WISCONSIN

CITY           SKY/WX    TMP DP  RH WIND       PRES   REMARKS
MEDFORD        MOSUNNY   76  70  81 SE8       29.81R
WAUSAU         MOSUNNY   79  70  74 S9        29.79F
MOSINEE        MOSUNNY   79  72  78 SE8       29.82F
MARSHFIELD     SUNNY     81  71  71 S9        29.79F
WISC RAPIDS    MOSUNNY   84  70  62 SW8       29.80F
STEVENS POINT  PTSUNNY   81  70  68 S12       29.81S
WAUPACA        SUNNY     87  71  59 S8        29.80F HX  92
SHAWANO        MOSUNNY   81  72  74 NE3       29.80F
CLINTONVILLE   MOSUNNY   82  70  65 S9        29.80F
$$

WIZ038-039-048-051-292300-
FOX VALLEY

CITY           SKY/WX    TMP DP  RH WIND       PRES   REMARKS
NWS GREEN BAY  SUNNY     83  72  69 S13       29.81F
APPLETON       PTSUNNY   84  70  61 SW12      29.82F
OSHKOSH        PTSUNNY   84  70  62 S20G25    29.81F
FOND DU LAC    MOSUNNY   83  71  67 S15       29.83S
$$

WIZ022-050-052-292300-
EAST CENTRAL WISCONSIN

CITY           SKY/WX    TMP DP  RH WIND       PRES   REMARKS
STURGEON BAY   PTSUNNY   70  66  88 S22       29.84F
MANITOWOC      PTSUNNY   72  68  87 S22G30    29.85S
SHEBOYGAN      MOSUNNY   73  68  84 S13G21    29.86S
$$

LMZ563-521-522-541>543-292300-
LAKESHORE

STATION/POSITION TIME  TEMP    WIND        PRES    VSBY  WAVE
                       AIR SEA DIR/SP/G                  HT/PER
                 (UTC) (F)     (DEG/KT/KT) (MB)    (MI)  (FT/S)
SHEBOYGAN LKSHOR 2200   68 69  180/ 16/ 17 1011.1F
KEWAUNEE LKSHORE 2200   66     170/ 14/ 16 1010.2S
TWO RIVERS CG    2100      70              1011.7      6   4
NORTHPORT PIER   2200   68     160/ 10/ 17 1010.8F
N MID LAKE BUOY  2200   67 65  200/  6/  8 1011.0F         3/ 5
S GREEN BAY BUOY 2200   75     VRB  8/ 12  1010.5F
SISTER BAY LKSHO 2200   69     190/ 21/ 26   N/A
STURGEON BAY CG  2100   67 66  180/ 13     1012.4   3 1/2  4
CHAMBERS ISLAND  2200   71     150/  8/ 14 1010.5F
MENOMINEE LKSHOR 2200   70     150/ 15/ 20 1010.3F
$$


USA.gov is the U.S. government's official web portal to all federal, state and local government web resources and services.